owner,sensor,date,latitude,longitude,vertical_datum,mass_concentration_of_oxygen_in_sea_water,qcFlag 
SCCF RECON,ioos:station:SCCF:11:1,2017-01-01T00:00:00Z,26.4679,-82.0631,1.879,7.68,1111122 
SCCF RECON,ioos:station:SCCF:11:1,2017-01-01T01:00:00Z,26.4679,-82.0631,1.81,7.68,1111122 
SCCF RECON,ioos:station:SCCF:11:1,2017-01-01T02:00:00Z,26.4679,-82.0631,1.81,7.96,1111122 
SCCF RECON,ioos:station:SCCF:11:1,2017-01-01T03:00:00Z,26.4679,-82.0631,1.89,7.57,1111122 
SCCF RECON,ioos:station:SCCF:11:1,2017-01-01T04:00:00Z,26.4679,-82.0631,2.04,6.84,1111122 
SCCF RECON,ioos:station:SCCF:11:1,2017-01-01T05:00:00Z,26.4679,-82.0631,2.14,6.97,1111122 
SCCF RECON,ioos:station:SCCF:11:1,2017-01-01T06:00:00Z,26.4679,-82.0631,2.206,6.91,1111122 
SCCF RECON,ioos:station:SCCF:11:1,2017-01-01T07:00:00Z,26.4679,-82.0631,2.22,7.06,1111122 
SCCF RECON,ioos:station:SCCF:11:1,2017-01-01T08:00:00Z,26.4679,-82.0631,2.2,6.69,1111122 
SCCF RECON,ioos:station:SCCF:11:1,2017-01-01T09:00:00Z,26.4679,-82.0631,2.098,7.01,1111122 
SCCF RECON,ioos:station:SCCF:11:1,2017-01-01T10:00:00Z,26.4679,-82.0631,1.969,6.9,1111122 
SCCF RECON,ioos:station:SCCF:11:1,2017-01-01T11:00:00Z,26.4679,-82.0631,1.84,6.95,1111122 
SCCF RECON,ioos:station:SCCF:11:1,2017-01-01T12:00:00Z,26.4679,-82.0631,1.718,6.83,1111122 
SCCF RECON,ioos:station:SCCF:11:1,2017-01-01T13:00:00Z,26.4679,-82.0631,1.6,6.76,1111122 
SCCF RECON,ioos:station:SCCF:11:1,2017-01-01T14:00:00Z,26.4679,-82.0631,1.53,6.79,1111122 
SCCF RECON,ioos:station:SCCF:11:1,2017-01-01T15:00:00Z,26.4679,-82.0631,1.555,6.97,1111122 
SCCF RECON,ioos:station:SCCF:11:1,2017-01-01T16:00:00Z,26.4679,-82.0631,1.705,7.09,1111122 
SCCF RECON,ioos:station:SCCF:11:1,2017-01-01T17:00:00Z,26.4679,-82.0631,1.879,7.33,1111122 
SCCF RECON,ioos:station:SCCF:11:1,2017-01-01T18:00:00Z,26.4679,-82.0631,1.98,7.31,1111122 
SCCF RECON,ioos:station:SCCF:11:1,2017-01-01T19:00:00Z,26.4679,-82.0631,2.058,7.38,1111122 
SCCF RECON,ioos:station:SCCF:11:1,2017-01-01T20:00:00Z,26.4679,-82.0631,2.117,7.2,1111122 
SCCF RECON,ioos:station:SCCF:11:1,2017-01-01T21:00:00Z,26.4679,-82.0631,2.146,7.26,1111122 
SCCF RECON,ioos:station:SCCF:11:1,2017-01-01T22:00:00Z,26.4679,-82.0631,2.123,7.04,1111122 
SCCF RECON,ioos:station:SCCF:11:1,2017-01-01T23:00:00Z,26.4679,-82.0631,2.069,7.55,1111122 
SCCF RECON,ioos:station:SCCF:11:1,2017-01-02T00:00:00Z,26.4679,-82.0631,2.0,8.1,1111122 
SCCF RECON,ioos:station:SCCF:11:1,2017-01-02T01:00:00Z,26.4679,-82.0631,1.95,7.86,1111122 
SCCF RECON,ioos:station:SCCF:11:1,2017-01-02T02:00:00Z,26.4679,-82.0631,1.93,7.79,1111122 
SCCF RECON,ioos:station:SCCF:11:1,2017-01-02T03:00:00Z,26.4679,-82.0631,1.94,7.32,1111122 
SCCF RECON,ioos:station:SCCF:11:1,2017-01-02T04:00:00Z,26.4679,-82.0631,2.04,7.29,1111122 
SCCF RECON,ioos:station:SCCF:11:1,2017-01-02T05:00:00Z,26.4679,-82.0631,2.16,6.15,1111122 
SCCF RECON,ioos:station:SCCF:11:1,2017-01-02T06:00:00Z,26.4679,-82.0631,2.235,6.2,1111122 
SCCF RECON,ioos:station:SCCF:11:1,2017-01-02T07:00:00Z,26.4679,-82.0631,2.27,6.38,1111122 
SCCF RECON,ioos:station:SCCF:11:1,2017-01-02T08:00:00Z,26.4679,-82.0631,2.246,6.37,1111122 
SCCF RECON,ioos:station:SCCF:11:1,2017-01-02T09:00:00Z,26.4679,-82.0631,2.169,6.76,1111122 
SCCF RECON,ioos:station:SCCF:11:1,2017-01-02T10:00:00Z,26.4679,-82.0631,2.039,6.92,1111122 
SCCF RECON,ioos:station:SCCF:11:1,2017-01-02T11:00:00Z,26.4679,-82.0631,1.913,6.7,1111122 
SCCF RECON,ioos:station:SCCF:11:1,2017-01-02T12:00:00Z,26.4679,-82.0631,1.789,6.67,1111122 
SCCF RECON,ioos:station:SCCF:11:1,2017-01-02T13:00:00Z,26.4679,-82.0631,1.67,6.6,1111122 
SCCF RECON,ioos:station:SCCF:11:1,2017-01-02T14:00:00Z,26.4679,-82.0631,1.555,6.59,1111122 
SCCF RECON,ioos:station:SCCF:11:1,2017-01-02T15:00:00Z,26.4679,-82.0631,1.49,6.6,1111122 
SCCF RECON,ioos:station:SCCF:11:1,2017-01-02T16:00:00Z,26.4679,-82.0631,1.54,6.7,1111122 
SCCF RECON,ioos:station:SCCF:11:1,2017-01-02T17:00:00Z,26.4679,-82.0631,1.68,6.83,1111122 
SCCF RECON,ioos:station:SCCF:11:1,2017-01-02T18:00:00Z,26.4679,-82.0631,1.808,7.08,1111122 
SCCF RECON,ioos:station:SCCF:11:1,2017-01-02T19:00:00Z,26.4679,-82.0631,1.892,7.04,1111122 
SCCF RECON,ioos:station:SCCF:11:1,2017-01-02T20:00:00Z,26.4679,-82.0631,1.957,7.1,1111122 
SCCF RECON,ioos:station:SCCF:11:1,2017-01-02T21:00:00Z,26.4679,-82.0631,2.01,7.22,1111122 
SCCF RECON,ioos:station:SCCF:11:1,2017-01-02T22:00:00Z,26.4679,-82.0631,2.03,7.18,1111122 
SCCF RECON,ioos:station:SCCF:11:1,2017-01-02T23:00:00Z,26.4679,-82.0631,2.0,6.91,1111122 
SCCF RECON,ioos:station:SCCF:11:1,2017-01-03T00:00:00Z,26.4679,-82.0631,1.899,7.59,1111122 
SCCF RECON,ioos:station:SCCF:11:1,2017-01-03T01:00:00Z,26.4679,-82.0631,1.81,7.45,1111122 
SCCF RECON,ioos:station:SCCF:11:1,2017-01-03T02:00:00Z,26.4679,-82.0631,1.741,7.24,1111122 
SCCF RECON,ioos:station:SCCF:11:1,2017-01-03T03:00:00Z,26.4679,-82.0631,1.75,7.09,1111122 
SCCF RECON,ioos:station:SCCF:11:1,2017-01-03T04:00:00Z,26.4679,-82.0631,1.81,6.83,1111122 
SCCF RECON,ioos:station:SCCF:11:1,2017-01-03T05:00:00Z,26.4679,-82.0631,1.91,6.27,1111122 
SCCF RECON,ioos:station:SCCF:11:1,2017-01-03T06:00:00Z,26.4679,-82.0631,1.998,6.34,1111122 
SCCF RECON,ioos:station:SCCF:11:1,2017-01-03T07:00:00Z,26.4679,-82.0631,2.06,6.61,1111122 
SCCF RECON,ioos:station:SCCF:11:1,2017-01-03T08:00:00Z,26.4679,-82.0631,2.07,6.53,1111122 
SCCF RECON,ioos:station:SCCF:11:1,2017-01-03T09:00:00Z,26.4679,-82.0631,2.05,6.15,1111122 
SCCF RECON,ioos:station:SCCF:11:1,2017-01-03T10:00:00Z,26.4679,-82.0631,2.04,6.07,1111122 
SCCF RECON,ioos:station:SCCF:11:1,2017-01-03T11:00:00Z,26.4679,-82.0631,1.99,6.15,1111122 
SCCF RECON,ioos:station:SCCF:11:1,2017-01-03T12:00:00Z,26.4679,-82.0631,1.86,6.31,1111122 
SCCF RECON,ioos:station:SCCF:11:1,2017-01-03T13:00:00Z,26.4679,-82.0631,1.732,6.11,1111122 
SCCF RECON,ioos:station:SCCF:11:1,2017-01-03T14:00:00Z,26.4679,-82.0631,1.62,6.08,1111122 
SCCF RECON,ioos:station:SCCF:11:1,2017-01-03T15:00:00Z,26.4679,-82.0631,1.52,6.08,1111122 
SCCF RECON,ioos:station:SCCF:11:1,2017-01-03T16:00:00Z,26.4679,-82.0631,1.498,6.25,1111122 
SCCF RECON,ioos:station:SCCF:11:1,2017-01-03T17:00:00Z,26.4679,-82.0631,1.56,6.68,1111122 
SCCF RECON,ioos:station:SCCF:11:1,2017-01-03T18:00:00Z,26.4679,-82.0631,1.685,6.78,1111122 
SCCF RECON,ioos:station:SCCF:11:1,2017-01-03T19:00:00Z,26.4679,-82.0631,1.81,6.84,1111122 
SCCF RECON,ioos:station:SCCF:11:1,2017-01-03T20:00:00Z,26.4679,-82.0631,1.9,6.96,1111122 
SCCF RECON,ioos:station:SCCF:11:1,2017-01-03T21:00:00Z,26.4679,-82.0631,1.991,7.13,1111122 
SCCF RECON,ioos:station:SCCF:11:1,2017-01-03T22:00:00Z,26.4679,-82.0631,2.036,6.84,1111122 
SCCF RECON,ioos:station:SCCF:11:1,2017-01-03T23:00:00Z,26.4679,-82.0631,2.03,6.65,1111122 
SCCF RECON,ioos:station:SCCF:11:1,2017-01-04T00:00:00Z,26.4679,-82.0631,1.959,7.19,1111122 
SCCF RECON,ioos:station:SCCF:11:1,2017-01-04T01:00:00Z,26.4679,-82.0631,1.856,7.55,1111122 
SCCF RECON,ioos:station:SCCF:11:1,2017-01-04T02:00:00Z,26.4679,-82.0631,1.801,7.27,1111122 
SCCF RECON,ioos:station:SCCF:11:1,2017-01-04T03:00:00Z,26.4679,-82.0631,1.769,6.9,1111122 
SCCF RECON,ioos:station:SCCF:11:1,2017-01-04T04:00:00Z,26.4679,-82.0631,1.74,6.96,1111122 
SCCF RECON,ioos:station:SCCF:11:1,2017-01-04T05:00:00Z,26.4679,-82.0631,1.79,6.51,1111122 
SCCF RECON,ioos:station:SCCF:11:1,2017-01-04T06:00:00Z,26.4679,-82.0631,1.88,6.62,1111122 
SCCF RECON,ioos:station:SCCF:11:1,2017-01-04T07:00:00Z,26.4679,-82.0631,1.96,6.26,1111122 
SCCF RECON,ioos:station:SCCF:11:1,2017-01-04T08:00:00Z,26.4679,-82.0631,2.02,6.48,1111122 
SCCF RECON,ioos:station:SCCF:11:1,2017-01-04T09:00:00Z,26.4679,-82.0631,2.07,6.45,1111122 
SCCF RECON,ioos:station:SCCF:11:1,2017-01-04T10:00:00Z,26.4679,-82.0631,2.09,6.32,1111122 
SCCF RECON,ioos:station:SCCF:11:1,2017-01-04T11:00:00Z,26.4679,-82.0631,2.046,6.26,1111122 
SCCF RECON,ioos:station:SCCF:11:1,2017-01-04T12:00:00Z,26.4679,-82.0631,1.955,6.33,1111122 
SCCF RECON,ioos:station:SCCF:11:1,2017-01-04T13:00:00Z,26.4679,-82.0631,1.848,6.22,1111122 
SCCF RECON,ioos:station:SCCF:11:1,2017-01-04T14:00:00Z,26.4679,-82.0631,1.729,6.01,1111122 
SCCF RECON,ioos:station:SCCF:11:1,2017-01-04T15:00:00Z,26.4679,-82.0631,1.64,6.03,1111122 
SCCF RECON,ioos:station:SCCF:11:1,2017-01-04T16:00:00Z,26.4679,-82.0631,1.584,6.19,1111122 
SCCF RECON,ioos:station:SCCF:11:1,2017-01-04T17:00:00Z,26.4679,-82.0631,1.577,6.08,1111122 
SCCF RECON,ioos:station:SCCF:11:1,2017-01-04T18:00:00Z,26.4679,-82.0631,1.659,6.41,1111122 
SCCF RECON,ioos:station:SCCF:11:1,2017-01-04T19:00:00Z,26.4679,-82.0631,1.773,6.76,1111122 
SCCF RECON,ioos:station:SCCF:11:1,2017-01-04T20:00:00Z,26.4679,-82.0631,1.893,6.9,1111122 
SCCF RECON,ioos:station:SCCF:11:1,2017-01-04T21:00:00Z,26.4679,-82.0631,1.98,6.87,1111122 
SCCF RECON,ioos:station:SCCF:11:1,2017-01-04T22:00:00Z,26.4679,-82.0631,2.055,6.88,1111122 
SCCF RECON,ioos:station:SCCF:11:1,2017-01-04T23:00:00Z,26.4679,-82.0631,2.061,7.09,1111122 
SCCF RECON,ioos:station:SCCF:11:1,2017-01-05T00:00:00Z,26.4679,-82.0631,2.0,7.1,1111122 
SCCF RECON,ioos:station:SCCF:11:1,2017-01-05T01:00:00Z,26.4679,-82.0631,1.92,7.29,1111122 
SCCF RECON,ioos:station:SCCF:11:1,2017-01-05T02:00:00Z,26.4679,-82.0631,1.83,7.03,1111122 
SCCF RECON,ioos:station:SCCF:11:1,2017-01-05T03:00:00Z,26.4679,-82.0631,1.74,6.78,1111122 
SCCF RECON,ioos:station:SCCF:11:1,2017-01-05T04:00:00Z,26.4679,-82.0631,1.66,6.6,1111122 
SCCF RECON,ioos:station:SCCF:11:1,2017-01-05T05:00:00Z,26.4679,-82.0631,1.61,6.5,1111122 
SCCF RECON,ioos:station:SCCF:11:1,2017-01-05T06:00:00Z,26.4679,-82.0631,1.614,6.4,1111122 
SCCF RECON,ioos:station:SCCF:11:1,2017-01-05T07:00:00Z,26.4679,-82.0631,1.68,6.26,1111122 
SCCF RECON,ioos:station:SCCF:11:1,2017-01-05T08:00:00Z,26.4679,-82.0631,1.79,6.24,1111122 
SCCF RECON,ioos:station:SCCF:11:1,2017-01-05T09:00:00Z,26.4679,-82.0631,1.88,6.09,1111122 
SCCF RECON,ioos:station:SCCF:11:1,2017-01-05T10:00:00Z,26.4679,-82.0631,1.92,6.12,1111122 
SCCF RECON,ioos:station:SCCF:11:1,2017-01-05T11:00:00Z,26.4679,-82.0631,1.932,6.11,1111122 
SCCF RECON,ioos:station:SCCF:11:1,2017-01-05T12:00:00Z,26.4679,-82.0631,1.904,6.22,1111122 
SCCF RECON,ioos:station:SCCF:11:1,2017-01-05T13:00:00Z,26.4679,-82.0631,1.82,6.12,1111122 
SCCF RECON,ioos:station:SCCF:11:1,2017-01-05T14:00:00Z,26.4679,-82.0631,1.73,5.91,1111122 
SCCF RECON,ioos:station:SCCF:11:1,2017-01-05T15:00:00Z,26.4679,-82.0631,1.66,5.79,1111122 
SCCF RECON,ioos:station:SCCF:11:1,2017-01-05T16:00:00Z,26.4679,-82.0631,1.611,5.91,1111122 
SCCF RECON,ioos:station:SCCF:11:1,2017-01-05T17:00:00Z,26.4679,-82.0631,1.583,6.11,1111122 
SCCF RECON,ioos:station:SCCF:11:1,2017-01-05T18:00:00Z,26.4679,-82.0631,1.585,6.22,1111122 
SCCF RECON,ioos:station:SCCF:11:1,2017-01-05T19:00:00Z,26.4679,-82.0631,1.648,6.47,1111122 
SCCF RECON,ioos:station:SCCF:11:1,2017-01-05T20:00:00Z,26.4679,-82.0631,1.756,6.85,1111122 
SCCF RECON,ioos:station:SCCF:11:1,2017-01-05T21:00:00Z,26.4679,-82.0631,1.873,6.95,1111122 
SCCF RECON,ioos:station:SCCF:11:1,2017-01-05T22:00:00Z,26.4679,-82.0631,1.959,6.97,1111122 
SCCF RECON,ioos:station:SCCF:11:1,2017-01-05T23:00:00Z,26.4679,-82.0631,2.028,6.83,1111122 
SCCF RECON,ioos:station:SCCF:11:1,2017-01-06T00:00:00Z,26.4679,-82.0631,2.05,6.65,1111122 
SCCF RECON,ioos:station:SCCF:11:1,2017-01-06T01:00:00Z,26.4679,-82.0631,2.021,6.53,1111122 
SCCF RECON,ioos:station:SCCF:11:1,2017-01-06T02:00:00Z,26.4679,-82.0631,1.93,6.88,1111122 
SCCF RECON,ioos:station:SCCF:11:1,2017-01-06T03:00:00Z,26.4679,-82.0631,1.829,6.83,1111122 
SCCF RECON,ioos:station:SCCF:11:1,2017-01-06T04:00:00Z,26.4679,-82.0631,1.74,6.77,1111122 
SCCF RECON,ioos:station:SCCF:11:1,2017-01-06T05:00:00Z,26.4679,-82.0631,1.673,6.77,1111122 
SCCF RECON,ioos:station:SCCF:11:1,2017-01-06T06:00:00Z,26.4679,-82.0631,1.61,6.46,1111122 
SCCF RECON,ioos:station:SCCF:11:1,2017-01-06T07:00:00Z,26.4679,-82.0631,1.58,6.34,1111122 
SCCF RECON,ioos:station:SCCF:11:1,2017-01-06T08:00:00Z,26.4679,-82.0631,1.649,6.06,1111122 
SCCF RECON,ioos:station:SCCF:11:1,2017-01-06T09:00:00Z,26.4679,-82.0631,1.76,6.15,1111122 
SCCF RECON,ioos:station:SCCF:11:1,2017-01-06T10:00:00Z,26.4679,-82.0631,1.853,6.09,1111122 
SCCF RECON,ioos:station:SCCF:11:1,2017-01-06T11:00:00Z,26.4679,-82.0631,1.91,5.89,1111122 
SCCF RECON,ioos:station:SCCF:11:1,2017-01-06T12:00:00Z,26.4679,-82.0631,1.95,6.1,1111122 
SCCF RECON,ioos:station:SCCF:11:1,2017-01-06T13:00:00Z,26.4679,-82.0631,1.956,5.77,1111122 
SCCF RECON,ioos:station:SCCF:11:1,2017-01-06T14:00:00Z,26.4679,-82.0631,1.929,5.7,1111122 
SCCF RECON,ioos:station:SCCF:11:1,2017-01-06T15:00:00Z,26.4679,-82.0631,1.859,6.21,1111122 
SCCF RECON,ioos:station:SCCF:11:1,2017-01-06T16:00:00Z,26.4679,-82.0631,1.787,6.05,1111122 
SCCF RECON,ioos:station:SCCF:11:1,2017-01-06T17:00:00Z,26.4679,-82.0631,1.729,6.05,1111122 
SCCF RECON,ioos:station:SCCF:11:1,2017-01-06T18:00:00Z,26.4679,-82.0631,1.664,6.15,1111122 
SCCF RECON,ioos:station:SCCF:11:1,2017-01-06T19:00:00Z,26.4679,-82.0631,1.679,6.46,1111122 
SCCF RECON,ioos:station:SCCF:11:1,2017-01-06T20:00:00Z,26.4679,-82.0631,1.785,6.62,1111122 
SCCF RECON,ioos:station:SCCF:11:1,2017-01-06T21:00:00Z,26.4679,-82.0631,1.897,7.0,1111122 
SCCF RECON,ioos:station:SCCF:11:1,2017-01-06T22:00:00Z,26.4679,-82.0631,1.985,6.93,1111122 
SCCF RECON,ioos:station:SCCF:11:1,2017-01-06T23:00:00Z,26.4679,-82.0631,2.091,6.83,1111122 
SCCF RECON,ioos:station:SCCF:11:1,2017-01-07T00:00:00Z,26.4679,-82.0631,2.163,6.52,1111122 
SCCF RECON,ioos:station:SCCF:11:1,2017-01-07T01:00:00Z,26.4679,-82.0631,2.21,6.3,1111122 
SCCF RECON,ioos:station:SCCF:11:1,2017-01-07T02:00:00Z,26.4679,-82.0631,2.199,6.34,1111122 
SCCF RECON,ioos:station:SCCF:11:1,2017-01-07T03:00:00Z,26.4679,-82.0631,2.107,6.66,1111122 
SCCF RECON,ioos:station:SCCF:11:1,2017-01-07T04:00:00Z,26.4679,-82.0631,1.99,6.69,1111122 
SCCF RECON,ioos:station:SCCF:11:1,2017-01-07T05:00:00Z,26.4679,-82.0631,1.9,6.64,1111122 
SCCF RECON,ioos:station:SCCF:11:1,2017-01-07T06:00:00Z,26.4679,-82.0631,1.802,6.27,1111122 
SCCF RECON,ioos:station:SCCF:11:1,2017-01-07T07:00:00Z,26.4679,-82.0631,1.71,6.18,1111122 
SCCF RECON,ioos:station:SCCF:11:1,2017-01-07T08:00:00Z,26.4679,-82.0631,1.67,6.16,1111122 
SCCF RECON,ioos:station:SCCF:11:1,2017-01-07T09:00:00Z,26.4679,-82.0631,1.755,5.8,1111122 
SCCF RECON,ioos:station:SCCF:11:1,2017-01-07T10:00:00Z,26.4679,-82.0631,1.87,6.26,1111122 
SCCF RECON,ioos:station:SCCF:11:1,2017-01-07T11:00:00Z,26.4679,-82.0631,1.97,6.01,1111122 
SCCF RECON,ioos:station:SCCF:11:1,2017-01-07T12:00:00Z,26.4679,-82.0631,2.05,6.3,1111122 
SCCF RECON,ioos:station:SCCF:11:1,2017-01-07T13:00:00Z,26.4679,-82.0631,2.117,6.12,1111122 
SCCF RECON,ioos:station:SCCF:11:1,2017-01-07T14:00:00Z,26.4679,-82.0631,2.115,5.94,1111122 
SCCF RECON,ioos:station:SCCF:11:1,2017-01-07T15:00:00Z,26.4679,-82.0631,2.07,6.1,1111122 
SCCF RECON,ioos:station:SCCF:11:1,2017-01-07T16:00:00Z,26.4679,-82.0631,2.122,6.09,1111122 
SCCF RECON,ioos:station:SCCF:11:1,2017-01-07T17:00:00Z,26.4679,-82.0631,2.033,6.2,1111122 
SCCF RECON,ioos:station:SCCF:11:1,2017-01-07T18:00:00Z,26.4679,-82.0631,1.902,6.21,1111122 
SCCF RECON,ioos:station:SCCF:11:1,2017-01-07T19:00:00Z,26.4679,-82.0631,1.791,6.05,1111122 
SCCF RECON,ioos:station:SCCF:11:1,2017-01-07T20:00:00Z,26.4679,-82.0631,1.743,6.2,1111122 
SCCF RECON,ioos:station:SCCF:11:1,2017-01-07T21:00:00Z,26.4679,-82.0631,1.731,6.32,1111122 
SCCF RECON,ioos:station:SCCF:11:1,2017-01-07T22:00:00Z,26.4679,-82.0631,1.729,6.4,1111122 
SCCF RECON,ioos:station:SCCF:11:1,2017-01-07T23:00:00Z,26.4679,-82.0631,1.755,6.49,1111122 
SCCF RECON,ioos:station:SCCF:11:1,2017-01-08T00:00:00Z,26.4679,-82.0631,1.813,6.44,1111122 
SCCF RECON,ioos:station:SCCF:11:1,2017-01-08T01:00:00Z,26.4679,-82.0631,1.839,6.52,1111122 
SCCF RECON,ioos:station:SCCF:11:1,2017-01-08T02:00:00Z,26.4679,-82.0631,1.835,6.43,1111122 
SCCF RECON,ioos:station:SCCF:11:1,2017-01-08T03:00:00Z,26.4679,-82.0631,1.811,6.45,1111122 
SCCF RECON,ioos:station:SCCF:11:1,2017-01-08T04:00:00Z,26.4679,-82.0631,1.736,6.39,1111122 
SCCF RECON,ioos:station:SCCF:11:1,2017-01-08T05:00:00Z,26.4679,-82.0631,1.605,6.43,1111122 
SCCF RECON,ioos:station:SCCF:11:1,2017-01-08T06:00:00Z,26.4679,-82.0631,1.483,6.4,1111122 
SCCF RECON,ioos:station:SCCF:11:1,2017-01-08T07:00:00Z,26.4679,-82.0631,1.32,6.47,1111122 
SCCF RECON,ioos:station:SCCF:11:1,2017-01-08T08:00:00Z,26.4679,-82.0631,1.223,6.45,1111122 
SCCF RECON,ioos:station:SCCF:11:1,2017-01-08T09:00:00Z,26.4679,-82.0631,1.144,6.52,1111122 
SCCF RECON,ioos:station:SCCF:11:1,2017-01-08T10:00:00Z,26.4679,-82.0631,1.128,6.59,1111122 
SCCF RECON,ioos:station:SCCF:11:1,2017-01-08T11:00:00Z,26.4679,-82.0631,1.186,7.08,1111122 
SCCF RECON,ioos:station:SCCF:11:1,2017-01-08T12:00:00Z,26.4679,-82.0631,1.296,7.14,1111122 
SCCF RECON,ioos:station:SCCF:11:1,2017-01-08T13:00:00Z,26.4679,-82.0631,1.409,7.27,1111122 
SCCF RECON,ioos:station:SCCF:11:1,2017-01-08T14:00:00Z,26.4679,-82.0631,1.493,7.15,1111122 
SCCF RECON,ioos:station:SCCF:11:1,2017-01-08T15:00:00Z,26.4679,-82.0631,1.548,7.17,1111122 
SCCF RECON,ioos:station:SCCF:11:1,2017-01-08T16:00:00Z,26.4679,-82.0631,1.562,7.19,1111122 
SCCF RECON,ioos:station:SCCF:11:1,2017-01-08T17:00:00Z,26.4679,-82.0631,1.571,7.21,1111122 
SCCF RECON,ioos:station:SCCF:11:1,2017-01-08T18:00:00Z,26.4679,-82.0631,1.574,7.47,1111122 
SCCF RECON,ioos:station:SCCF:11:1,2017-01-08T19:00:00Z,26.4679,-82.0631,1.584,7.68,1111122 
SCCF RECON,ioos:station:SCCF:11:1,2017-01-08T20:00:00Z,26.4679,-82.0631,1.601,7.87,1111122 
SCCF RECON,ioos:station:SCCF:11:1,2017-01-08T21:00:00Z,26.4679,-82.0631,1.59,8.05,1111122 
SCCF RECON,ioos:station:SCCF:11:1,2017-01-08T22:00:00Z,26.4679,-82.0631,1.665,8.07,1111122 
SCCF RECON,ioos:station:SCCF:11:1,2017-01-08T23:00:00Z,26.4679,-82.0631,1.819,7.97,1111122 
SCCF RECON,ioos:station:SCCF:11:1,2017-01-09T00:00:00Z,26.4679,-82.0631,1.961,7.89,1111122 
SCCF RECON,ioos:station:SCCF:11:1,2017-01-09T01:00:00Z,26.4679,-82.0631,2.058,7.86,1111122 
SCCF RECON,ioos:station:SCCF:11:1,2017-01-09T02:00:00Z,26.4679,-82.0631,2.121,7.74,1111122 
SCCF RECON,ioos:station:SCCF:11:1,2017-01-09T03:00:00Z,26.4679,-82.0631,2.043,7.72,1111122 
SCCF RECON,ioos:station:SCCF:11:1,2017-01-09T04:00:00Z,26.4679,-82.0631,1.938,7.73,1111122 
SCCF RECON,ioos:station:SCCF:11:1,2017-01-09T05:00:00Z,26.4679,-82.0631,1.804,7.72,1111122 
SCCF RECON,ioos:station:SCCF:11:1,2017-01-09T06:00:00Z,26.4679,-82.0631,1.688,7.68,1111122 
SCCF RECON,ioos:station:SCCF:11:1,2017-01-09T07:00:00Z,26.4679,-82.0631,1.551,7.69,1111122 
SCCF RECON,ioos:station:SCCF:11:1,2017-01-09T08:00:00Z,26.4679,-82.0631,1.424,7.64,1111122 
SCCF RECON,ioos:station:SCCF:11:1,2017-01-09T09:00:00Z,26.4679,-82.0631,1.315,7.62,1111122 
SCCF RECON,ioos:station:SCCF:11:1,2017-01-09T10:00:00Z,26.4679,-82.0631,1.237,7.61,1111122 
SCCF RECON,ioos:station:SCCF:11:1,2017-01-09T11:00:00Z,26.4679,-82.0631,1.254,7.68,1111122 
SCCF RECON,ioos:station:SCCF:11:1,2017-01-09T12:00:00Z,26.4679,-82.0631,1.386,7.71,1111122 
SCCF RECON,ioos:station:SCCF:11:1,2017-01-09T13:00:00Z,26.4679,-82.0631,1.558,7.78,1111122 
SCCF RECON,ioos:station:SCCF:11:1,2017-01-09T14:00:00Z,26.4679,-82.0631,1.691,7.89,1111122 
SCCF RECON,ioos:station:SCCF:11:1,2017-01-09T15:00:00Z,26.4679,-82.0631,1.804,8.0,1111122 
SCCF RECON,ioos:station:SCCF:11:1,2017-01-09T16:00:00Z,26.4679,-82.0631,1.881,8.09,1111122 
SCCF RECON,ioos:station:SCCF:11:1,2017-01-09T17:00:00Z,26.4679,-82.0631,1.89,8.02,1111122 
SCCF RECON,ioos:station:SCCF:11:1,2017-01-09T18:00:00Z,26.4679,-82.0631,1.821,8.17,1111122 
SCCF RECON,ioos:station:SCCF:11:1,2017-01-09T19:00:00Z,26.4679,-82.0631,1.749,8.34,1111122 
SCCF RECON,ioos:station:SCCF:11:1,2017-01-09T20:00:00Z,26.4679,-82.0631,1.72,8.44,1111122 
SCCF RECON,ioos:station:SCCF:11:1,2017-01-09T21:00:00Z,26.4679,-82.0631,1.72,8.44,1111122 
SCCF RECON,ioos:station:SCCF:11:1,2017-01-09T22:00:00Z,26.4679,-82.0631,1.79,8.51,1111122 
SCCF RECON,ioos:station:SCCF:11:1,2017-01-09T23:00:00Z,26.4679,-82.0631,1.89,8.52,1111122 
SCCF RECON,ioos:station:SCCF:11:1,2017-01-10T00:00:00Z,26.4679,-82.0631,1.99,8.36,1111122 
SCCF RECON,ioos:station:SCCF:11:1,2017-01-10T01:00:00Z,26.4679,-82.0631,2.09,8.2,1111122 
SCCF RECON,ioos:station:SCCF:11:1,2017-01-10T02:00:00Z,26.4679,-82.0631,2.17,8.13,1111122 
SCCF RECON,ioos:station:SCCF:11:1,2017-01-10T03:00:00Z,26.4679,-82.0631,2.21,8.02,1111122 
SCCF RECON,ioos:station:SCCF:11:1,2017-01-10T04:00:00Z,26.4679,-82.0631,2.19,8.04,1111122 
SCCF RECON,ioos:station:SCCF:11:1,2017-01-10T05:00:00Z,26.4679,-82.0631,2.07,8.07,1111122 
SCCF RECON,ioos:station:SCCF:11:1,2017-01-10T06:00:00Z,26.4679,-82.0631,1.922,8.15,1111122 
SCCF RECON,ioos:station:SCCF:11:1,2017-01-10T07:00:00Z,26.4679,-82.0631,1.775,8.13,1111122 
SCCF RECON,ioos:station:SCCF:11:1,2017-01-10T08:00:00Z,26.4679,-82.0631,1.631,8.11,1111122 
SCCF RECON,ioos:station:SCCF:11:1,2017-01-10T09:00:00Z,26.4679,-82.0631,1.492,8.05,1111122 
SCCF RECON,ioos:station:SCCF:11:1,2017-01-10T10:00:00Z,26.4679,-82.0631,1.38,7.98,1111122 
SCCF RECON,ioos:station:SCCF:11:1,2017-01-10T11:00:00Z,26.4679,-82.0631,1.33,7.9,1111122 
SCCF RECON,ioos:station:SCCF:11:1,2017-01-10T12:00:00Z,26.4679,-82.0631,1.409,7.82,1111122 
SCCF RECON,ioos:station:SCCF:11:1,2017-01-10T13:00:00Z,26.4679,-82.0631,1.595,7.87,1111122 
SCCF RECON,ioos:station:SCCF:11:1,2017-01-10T14:00:00Z,26.4679,-82.0631,1.76,8.01,1111122 
SCCF RECON,ioos:station:SCCF:11:1,2017-01-10T15:00:00Z,26.4679,-82.0631,1.9,8.08,1111122 
SCCF RECON,ioos:station:SCCF:11:1,2017-01-10T16:00:00Z,26.4679,-82.0631,2.02,8.17,1111122 
SCCF RECON,ioos:station:SCCF:11:1,2017-01-10T17:00:00Z,26.4679,-82.0631,2.088,8.25,1111122 
SCCF RECON,ioos:station:SCCF:11:1,2017-01-10T18:00:00Z,26.4679,-82.0631,2.097,8.26,1111122 
SCCF RECON,ioos:station:SCCF:11:1,2017-01-10T19:00:00Z,26.4679,-82.0631,2.04,8.36,1111122 
SCCF RECON,ioos:station:SCCF:11:1,2017-01-10T20:00:00Z,26.4679,-82.0631,1.965,8.48,1111122 
SCCF RECON,ioos:station:SCCF:11:1,2017-01-10T21:00:00Z,26.4679,-82.0631,1.9,8.68,1111122 
SCCF RECON,ioos:station:SCCF:11:1,2017-01-10T22:00:00Z,26.4679,-82.0631,1.941,8.73,1111122 
SCCF RECON,ioos:station:SCCF:11:1,2017-01-10T23:00:00Z,26.4679,-82.0631,1.985,8.7,1111122 
SCCF RECON,ioos:station:SCCF:11:1,2017-01-11T00:00:00Z,26.4679,-82.0631,2.1,8.19,1111122 
SCCF RECON,ioos:station:SCCF:11:1,2017-01-11T01:00:00Z,26.4679,-82.0631,2.22,8.21,1111122 
SCCF RECON,ioos:station:SCCF:11:1,2017-01-11T02:00:00Z,26.4679,-82.0631,2.31,8.03,1111122 
SCCF RECON,ioos:station:SCCF:11:1,2017-01-11T03:00:00Z,26.4679,-82.0631,2.37,8.07,1111122 
SCCF RECON,ioos:station:SCCF:11:1,2017-01-11T04:00:00Z,26.4679,-82.0631,2.44,7.79,1111122 
SCCF RECON,ioos:station:SCCF:11:1,2017-01-11T05:00:00Z,26.4679,-82.0631,2.439,7.83,1111122 
SCCF RECON,ioos:station:SCCF:11:1,2017-01-11T06:00:00Z,26.4679,-82.0631,2.3,8.13,1111122 
SCCF RECON,ioos:station:SCCF:11:1,2017-01-11T07:00:00Z,26.4679,-82.0631,2.109,8.16,1111122 
SCCF RECON,ioos:station:SCCF:11:1,2017-01-11T08:00:00Z,26.4679,-82.0631,1.929,8.16,1111122 
SCCF RECON,ioos:station:SCCF:11:1,2017-01-11T09:00:00Z,26.4679,-82.0631,1.751,8.14,1111122 
SCCF RECON,ioos:station:SCCF:11:1,2017-01-11T10:00:00Z,26.4679,-82.0631,1.581,8.08,1111122 
SCCF RECON,ioos:station:SCCF:11:1,2017-01-11T11:00:00Z,26.4679,-82.0631,1.455,8.03,1111122 
SCCF RECON,ioos:station:SCCF:11:1,2017-01-11T12:00:00Z,26.4679,-82.0631,1.402,7.98,1111122 
SCCF RECON,ioos:station:SCCF:11:1,2017-01-11T13:00:00Z,26.4679,-82.0631,1.49,7.75,1111122 
SCCF RECON,ioos:station:SCCF:11:1,2017-01-11T14:00:00Z,26.4679,-82.0631,1.666,7.88,1111122 
SCCF RECON,ioos:station:SCCF:11:1,2017-01-11T15:00:00Z,26.4679,-82.0631,1.821,8.13,1111122 
SCCF RECON,ioos:station:SCCF:11:1,2017-01-11T16:00:00Z,26.4679,-82.0631,1.95,8.17,1111122 
SCCF RECON,ioos:station:SCCF:11:1,2017-01-11T17:00:00Z,26.4679,-82.0631,2.044,8.39,1111122 
SCCF RECON,ioos:station:SCCF:11:1,2017-01-11T18:00:00Z,26.4679,-82.0631,2.075,8.28,1111122 
SCCF RECON,ioos:station:SCCF:11:1,2017-01-11T19:00:00Z,26.4679,-82.0631,2.04,8.38,1111122 
SCCF RECON,ioos:station:SCCF:11:1,2017-01-11T20:00:00Z,26.4679,-82.0631,1.965,8.48,1111122 